When you browse on this site, cookies collect data to enhance your experience and personalize the content and advertising you see.
Visit our Privacy Policy to learn more. By continuing to use the site, you agree to this use of cookies and data.
  • In Hungary
  • List of Countries
  • For 7 days
  • Water Temperature
  • Weather Map
  • News
  • Weather Widgets
  • user-avatar
    Login

    Hourly Weather Ismail

    Today, 14 October, Monday

    Time Temperature Precipitation Wind Pressure Humidity
    00:00 +5°C° 0.1 mm 6 mps 737 mmHg 85%
    01:00 +5°C° 0 mm 6 mps 737 mmHg 84%
    02:00 +5°C° 0 mm 6 mps 738 mmHg 84%
    03:00 +5°C° 0 mm 6 mps 738 mmHg 83%
    04:00 +5°C° 0 mm 6 mps 738 mmHg 84%
    05:00 +4°C° 0 mm 6 mps 739 mmHg 85%
    06:00 +4°C° 0 mm 6 mps 739 mmHg 85%
    07:00 +4°C° 0 mm 7 mps 740 mmHg 84%
    08:00 +5°C° 0 mm 7 mps 740 mmHg 82%
    09:00 +5°C° 0 mm 8 mps 741 mmHg 81%
    10:00 +5°C° 0 mm 7 mps 741 mmHg 81%
    11:00 +6°C° 0 mm 7 mps 741 mmHg 80%
    12:00 +7°C° 0 mm 6 mps 742 mmHg 80%
    13:00 +7°C° 0.1 mm 6 mps 742 mmHg 77%
    14:00 +8°C° 0.1 mm 6 mps 742 mmHg 75%
    15:00 +8°C° 0.1 mm 5 mps 743 mmHg 73%
    16:00 +7°C° 0 mm 5 mps 743 mmHg 76%
    17:00 +6°C° 0 mm 5 mps 743 mmHg 79%
    18:00 +5°C° 0 mm 4 mps 744 mmHg 82%
    19:00 +5°C° 0 mm 4 mps 744 mmHg 83%
    20:00 +4°C° 0 mm 3 mps 744 mmHg 84%
    21:00 +4°C° 0 mm 2 mps 744 mmHg 85%
    22:00 +4°C° 0 mm 3 mps 744 mmHg 87%
    23:00 +4°C° 0 mm 3 mps 743 mmHg 90%

    Tomorrow, 15 October, Tuesday

    Time Temperature Precipitation Wind Pressure Humidity
    00:00 +4°C° 0 mm 3 mps 743 mmHg 92%
    01:00 +4°C° 0.4 mm 3 mps 742 mmHg 93%
    02:00 +5°C° 0.4 mm 3 mps 742 mmHg 94%
    03:00 +5°C° 0.4 mm 3 mps 741 mmHg 95%
    04:00 +5°C° 1 mm 3 mps 740 mmHg 95%
    05:00 +5°C° 1 mm 3 mps 739 mmHg 96%
    06:00 +4°C° 1 mm 3 mps 738 mmHg 96%
    07:00 +5°C° 1 mm 3 mps 738 mmHg 96%
    08:00 +5°C° 1 mm 3 mps 738 mmHg 96%
    09:00 +5°C° 1 mm 3 mps 738 mmHg 96%
    10:00 +5°C° 0 mm 3 mps 738 mmHg 94%
    11:00 +5°C° 0 mm 3 mps 739 mmHg 93%
    12:00 +5°C° 0 mm 4 mps 739 mmHg 91%
    13:00 +5°C° 0 mm 4 mps 740 mmHg 90%
    14:00 +5°C° 0 mm 4 mps 741 mmHg 90%
    15:00 +3°C° 0 mm 5 mps 742 mmHg 89%
    16:00 +4°C° 0 mm 4 mps 743 mmHg 87%
    17:00 +4°C° 0 mm 4 mps 744 mmHg 86%
    18:00 +3°C° 0 mm 4 mps 744 mmHg 84%
    19:00 +3°C° 0 mm 4 mps 745 mmHg 82%
    20:00 +1°C° 0 mm 4 mps 746 mmHg 81%
    21:00 +1°C° 0 mm 5 mps 746 mmHg 79%
    22:00 +1°C° 0 mm 5 mps 747 mmHg 83%
    23:00 +1°C° 0 mm 5 mps 747 mmHg 86%

    Day after tomorrow, 16 October, Wednesday

    Time Temperature Precipitation Wind Pressure Humidity
    00:00 +1°C° 0 mm 5 mps 748 mmHg 90%
    01:00 +1°C° 0 mm 5 mps 748 mmHg 89%
    02:00 +1°C° 0 mm 5 mps 749 mmHg 89%
    03:00 +1°C° 0 mm 5 mps 750 mmHg 88%
    04:00 0°C° 0 mm 5 mps 750 mmHg 88%
    05:00 0°C° 0 mm 5 mps 750 mmHg 89%
    06:00 0°C° 0 mm 5 mps 751 mmHg 89%
    07:00 0°C° 0 mm 5 mps 751 mmHg 86%
    08:00 0°C° 0 mm 5 mps 752 mmHg 84%
    09:00 0°C° 0 mm 5 mps 752 mmHg 81%
    10:00 +1°C° 0 mm 5 mps 752 mmHg 77%
    11:00 +1°C° 0 mm 5 mps 753 mmHg 73%
    12:00 +3°C° 0 mm 4 mps 753 mmHg 69%
    13:00 +3°C° 0 mm 4 mps 753 mmHg 70%
    14:00 +3°C° 0 mm 4 mps 754 mmHg 72%
    15:00 +1°C° 0 mm 4 mps 754 mmHg 73%
    16:00 +1°C° 0 mm 4 mps 754 mmHg 75%
    17:00 +1°C° 0 mm 3 mps 754 mmHg 77%
    18:00 +2°C° 0 mm 2 mps 754 mmHg 79%
    19:00 +2°C° 0 mm 2 mps 755 mmHg 79%
    20:00 +2°C° 0 mm 2 mps 755 mmHg 78%
    21:00 +3°C° 0 mm 1 mps 755 mmHg 78%
    22:00 +3°C° 0 mm 1 mps 755 mmHg 79%
    23:00 +2°C° 0 mm 1 mps 755 mmHg 80%

    17 October, Thursday

    Time Temperature Precipitation Wind Pressure Humidity
    00:00 +2°C° 0 mm 1 mps 755 mmHg 81%
    01:00 +1°C° 0 mm 2 mps 755 mmHg 82%
    02:00 +1°C° 0 mm 2 mps 755 mmHg 82%
    03:00 +1°C° 0 mm 2 mps 755 mmHg 83%
    04:00 +1°C° 0.3 mm 2 mps 754 mmHg 87%
    05:00 0°C° 0.3 mm 3 mps 754 mmHg 92%
    06:00 -1°C° 0.3 mm 4 mps 753 mmHg 96%
    07:00 -1°C° 0.1 mm 4 mps 752 mmHg 93%
    08:00 0°C° 0.1 mm 5 mps 752 mmHg 89%
    09:00 -1°C° 0.1 mm 6 mps 751 mmHg 85%
    10:00 +1°C° 0 mm 6 mps 750 mmHg 82%
    11:00 +2°C° 0 mm 7 mps 749 mmHg 79%
    12:00 +2°C° 0 mm 7 mps 749 mmHg 75%
    13:00 +3°C° 0 mm 7 mps 748 mmHg 74%
    14:00 +4°C° 0 mm 7 mps 747 mmHg 73%
    15:00 +5°C° 0 mm 7 mps 745 mmHg 72%
    16:00 +5°C° 0.1 mm 7 mps 745 mmHg 76%
    17:00 +5°C° 0.1 mm 7 mps 744 mmHg 79%
    18:00 +5°C° 0.1 mm 7 mps 743 mmHg 83%
    19:00 +6°C° 0.7 mm 7 mps 742 mmHg 86%
    20:00 +6°C° 0.7 mm 7 mps 741 mmHg 89%
    21:00 +8°C° 0.7 mm 7 mps 740 mmHg 93%
    22:00 +8°C° 0.8 mm 7 mps 740 mmHg 93%
    23:00 +9°C° 0.8 mm 7 mps 739 mmHg 94%

    18 October, Friday

    Time Temperature Precipitation Wind Pressure Humidity
    00:00 +9°C° 0.8 mm 6 mps 738 mmHg 94%
    01:00 +8°C° 0.3 mm 7 mps 739 mmHg 92%
    02:00 +6°C° 0.3 mm 7 mps 739 mmHg 90%
    03:00 +5°C° 0.3 mm 7 mps 739 mmHg 87%
    04:00 +2°C° 0.3 mm 8 mps 739 mmHg 85%
    05:00 +1°C° 0.3 mm 8 mps 740 mmHg 82%
    06:00 -1°C° 0.3 mm 8 mps 741 mmHg 80%
    07:00 -1°C° 0 mm 9 mps 742 mmHg 78%
    08:00 -1°C° 0 mm 9 mps 743 mmHg 76%
    09:00 -3°C° 0 mm 9 mps 744 mmHg 74%
    10:00 -3°C° 0 mm 9 mps 745 mmHg 73%
    11:00 -3°C° 0 mm 9 mps 746 mmHg 73%
    12:00 -3°C° 0 mm 9 mps 747 mmHg 72%
    13:00 -3°C° 0 mm 9 mps 747 mmHg 72%
    14:00 -3°C° 0 mm 9 mps 748 mmHg 72%
    15:00 -2°C° 0 mm 8 mps 749 mmHg 72%
    16:00 -4°C° 0 mm 8 mps 749 mmHg 73%
    17:00 -4°C° 0 mm 8 mps 750 mmHg 75%
    18:00 -4°C° 0 mm 7 mps 751 mmHg 76%
    19:00 -4°C° 0 mm 7 mps 752 mmHg 75%
    20:00 -4°C° 0 mm 7 mps 752 mmHg 74%
    21:00 -4°C° 0 mm 6 mps 753 mmHg 73%
    22:00 -5°C° 0 mm 5 mps 753 mmHg 77%
    23:00 -5°C° 0 mm 5 mps 754 mmHg 80%

    19 October, Saturday

    Time Temperature Precipitation Wind Pressure Humidity
    00:00 -5°C° 0 mm 4 mps 754 mmHg 84%
    01:00 -5°C° 0 mm 4 mps 754 mmHg 84%
    02:00 -5°C° 0 mm 3 mps 755 mmHg 83%
    03:00 -5°C° 0 mm 3 mps 755 mmHg 83%
    04:00 -5°C° 0 mm 3 mps 756 mmHg 83%
    05:00 -5°C° 0 mm 3 mps 756 mmHg 82%
    06:00 -5°C° 0 mm 3 mps 756 mmHg 82%
    07:00 -4°C° 0 mm 3 mps 756 mmHg 77%
    08:00 -3°C° 0 mm 2 mps 757 mmHg 72%
    09:00 -2°C° 0 mm 2 mps 757 mmHg 67%
    10:00 -1°C° 0 mm 2 mps 757 mmHg 61%
    11:00 +1°C° 0 mm 2 mps 757 mmHg 56%
    12:00 +2°C° 0 mm 2 mps 757 mmHg 50%
    13:00 +2°C° 0 mm 2 mps 756 mmHg 51%
    14:00 +2°C° 0 mm 2 mps 756 mmHg 52%
    15:00 +1°C° 0 mm 3 mps 756 mmHg 53%
    16:00 0°C° 0 mm 3 mps 756 mmHg 59%
    17:00 0°C° 0 mm 3 mps 756 mmHg 65%
    18:00 -1°C° 0 mm 3 mps 755 mmHg 70%
    19:00 -2°C° 0 mm 3 mps 755 mmHg 72%
    20:00 -2°C° 0 mm 3 mps 755 mmHg 73%
    21:00 -2°C° 0 mm 3 mps 755 mmHg 75%
    22:00 -2°C° 0 mm 3 mps 755 mmHg 75%
    23:00 -2°C° 0 mm 3 mps 755 mmHg 75%
    Show more